2024-173L

Last updated on Tue Oct 08 2024 00:02:04 GMT+0000 (Coordinated Universal Time)

1 61237U 24173L 24281.56828685 .00054353 00000+0 13408-2 0 9998 2 61237 97.6772 355.0360 0086449 266.9558 92.1791 15.36503675 2106
UTC large
Height (km)
Speed (km/s)
/
Latitude / Longitude
Inclination (degrees)
Orbital Period (minutes)
Azimuth
Elevation
Range (km)
Doppler Factor

Next 0 passes for location: London (51.5072 / 0.1276)

Sorry there are no passes over London.